"Pseudo-MPEC" for P21Fxx6

Created 2023 May 29 12:22:14 UT using Find_Orb

Click here for an explanation of pseudo-MPECs

 
 Astrometry: 
     P21Fxx6* C2023 05 18fB8*5'F!aYxD-q#F2Ij]vAX+@Z2C2QvyMh]o*=1=Astrometry/JF52
     P21Fxx6  C2023 05 18g2Jy5;6redacted;2click6H=V(O:ZPmbr+$herehivS,8bWYN'XF52
     P21Fxx6  C2023 05 18cBHuforYplixAilexplanationVs:FEBh4rAt0]Qie3!N/I$Bsp2F52

Station data:
(F52) Pan-STARRS 2, Haleakala  (N20.707382 W156.255910)  US/Hawaii.
   Observers J. Bulger, T. Dukes, T. Lowe, A. Schultz, M. Willman. Measurers
   K. Chambers, S. Chastel, T. de Boer, L. Denneau, J. Fairlamb, H.
   Flewelling, M. Huber, C.-C. Lin, E. Magnier, Y. Ramanjooloo, R. Wainscoat,
   R. Weryk. 1.8-m Ritchey-Chrétien + CCD.

Orbital elements:  P21Fxx6
   Perihelion 2023 Jul 27.51169 +/- 72.1 TT = 12:16:50 (JD 2460153.01169)
Epoch 2023 May 18.0 TT = JDT 2460082.5   Earth MOID: 0.2106   Ma: 0.0942
M 314.40073225 +/- 31               (J2000 ecliptic)             AutoNEOCP
n   0.64669086 +/- 0.352            Peri.   47.64517 +/- 80
a   1.32435647 +/- 0.481            Node   240.39981 +/- 38
e   0.0930422 +/- 0.278             Incl.   11.44295 +/- 18
P   1.52/556.67d           H 23.80  G  0.15   U 12.0  SR
q 1.20113538 +/- 0.468    Q 1.44757755 +/- 32.4
From 3 observations 2023 May 18 (49.5 min); mean residual 0".09
Residuals in arcseconds: 
230518 F52  .01+  .06+    230518 F52  .01-  .17-    230518 F52  .04+  .12+    

Ephemerides (geocentric):
Date (UTC) HH   RA             Dec           delta  r     elong  mag " sig PA
---- --------  ------------   ------------  ------ ------ -----  --- --------
2023 05 29 12  14 37 47.827   -12 59 43.92  .23943 1.2324 153.5 22.2  37d   1
2023 05 29 13  14 37 47.730   -12 57 45.37  .23946 1.2323 153.4 22.3  37d   1
2023 05 29 14  14 37 47.625   -12 55 46.82  .23950 1.2323 153.4 22.3  37d   1
2023 05 29 15  14 37 47.514   -12 53 48.26  .23953 1.2322 153.3 22.3  37d   1
2023 05 29 16  14 37 47.396   -12 51 49.69  .23957 1.2322 153.3 22.3  37d   1
2023 05 29 17  14 37 47.271   -12 49 51.12  .23960 1.2322 153.2 22.3  37d   1
2023 05 29 18  14 37 47.140   -12 47 52.53  .23964 1.2321 153.2 22.3  37d   1
2023 05 29 19  14 37 47.002   -12 45 53.94  .23967 1.2321 153.1 22.3  37d   1
2023 05 29 20  14 37 46.857   -12 43 55.34  .23970 1.2320 153.1 22.3  37d   1
2023 05 29 21  14 37 46.705   -12 41 56.73  .23974 1.2320 153.0 22.3  36d   1
2023 05 29 22  14 37 46.547   -12 39 58.12  .23977 1.2319 153.0 22.3  36d   1
2023 05 29 23  14 37 46.382   -12 37 59.49  .23980 1.2319 152.9 22.3  36d   1
2023 05 30 00  14 37 46.210   -12 36 00.85  .23983 1.2318 152.9 22.3  36d   1
2023 05 30 01  14 37 46.031   -12 34 02.20  .23987 1.2318 152.8 22.3  36d   1
2023 05 30 02  14 37 45.846   -12 32 03.54  .23990 1.2317 152.7 22.3  36d   1
2023 05 30 03  14 37 45.654   -12 30 04.87  .23993 1.2317 152.7 22.3  36d   1
2023 05 30 04  14 37 45.455   -12 28 06.18  .23996 1.2316 152.6 22.3  36d   1
2023 05 30 05  14 37 45.249   -12 26 07.49  .23999 1.2316 152.6 22.3  36d   1
2023 05 30 06  14 37 45.036   -12 24 08.78  .24002 1.2315 152.5 22.3  36d   1
2023 05 30 07  14 37 44.817   -12 22 10.05  .24006 1.2315 152.5 22.3  36d   1
2023 05 30 08  14 37 44.591   -12 20 11.32  .24009 1.2314 152.4 22.3  36d   1
2023 05 30 09  14 37 44.358   -12 18 12.57  .24012 1.2314 152.4 22.3  36d   1
2023 05 30 10  14 37 44.118   -12 16 13.80  .24015 1.2313 152.3 22.3  36d   1
2023 05 30 11  14 37 43.871   -12 14 15.02  .24018 1.2313 152.3 22.3  36d   1
2023 05 30 12  14 37 43.617   -12 12 16.23  .24021 1.2312 152.2 22.3  36d   1
2023 05 30 13  14 37 43.357   -12 10 17.42  .24024 1.2312 152.2 22.3  36d   1
2023 05 30 14  14 37 43.090   -12 08 18.59  .24027 1.2311 152.1 22.3  36d   1
2023 05 30 15  14 37 42.816   -12 06 19.75  .24029 1.2311 152.1 22.3  36d   1
2023 05 30 16  14 37 42.535   -12 04 20.89  .24032 1.2310 152.0 22.3  36d   1
2023 05 30 17  14 37 42.247   -12 02 22.01  .24035 1.2310 151.9 22.3  36d   1
2023 05 30 18  14 37 41.952   -12 00 23.12  .24038 1.2309 151.9 22.3  36d   7
2023 05 30 19  14 37 41.650   -11 58 24.21  .24041 1.2309 151.8 22.3  36d   7
2023 05 30 20  14 37 41.342   -11 56 25.28  .24044 1.2308 151.8 22.3  36d   7
2023 05 30 21  14 37 41.026   -11 54 26.33  .24046 1.2307 151.7 22.3  36d   7
2023 05 30 22  14 37 40.704   -11 52 27.36  .24049 1.2307 151.7 22.3  36d   7
2023 05 30 23  14 37 40.375   -11 50 28.37  .24052 1.2306 151.6 22.3  36d   7
2023 05 31 00  14 37 40.039   -11 48 29.36  .24055 1.2306 151.6 22.3  36d   7
2023 05 31 01  14 37 39.696   -11 46 30.33  .24057 1.2305 151.5 22.3  36d   7
2023 05 31 02  14 37 39.346   -11 44 31.29  .24060 1.2305 151.5 22.3  36d   7
2023 05 31 03  14 37 38.989   -11 42 32.22  .24063 1.2304 151.4 22.3  36d   7
2023 05 31 04  14 37 38.625   -11 40 33.12  .24065 1.2303 151.3 22.3  36d   7
2023 05 31 05  14 37 38.254   -11 38 34.01  .24068 1.2303 151.3 22.3  36d   7
2023 05 31 06  14 37 37.876   -11 36 34.88  .24070 1.2302 151.2 22.3  36d   7
2023 05 31 07  14 37 37.491   -11 34 35.72  .24073 1.2301 151.2 22.3  36d   7
2023 05 31 08  14 37 37.099   -11 32 36.54  .24075 1.2301 151.1 22.3  36d   7
2023 05 31 09  14 37 36.701   -11 30 37.33  .24078 1.2300 151.1 22.3  36d   7
2023 05 31 10  14 37 36.295   -11 28 38.10  .24080 1.2300 151.0 22.3  36d   7
2023 05 31 11  14 37 35.888   -11 26 38.89  .24083 1.2299 151.0 22.3  36d   8